FENGYUN 1C DEB, 32230

Orbit data source: Space-Track

FENGYUN 1C DEB, 32230 is space debris in SSO originally from a launch on Mon, 10 May 1999 UTC launched from the Taiyaun Space Center, China (TSC). Fengyun 1C debris stems from the Chinese weather satellite Fengyun-1C, which was intentionally destroyed by a Chinese anti-satellite missile in 2007. This event dramatically increased the amount of space debris, with thousands of trackable fragments posing hazards to satellites and human spaceflight. The Fengyun 1C debris cloud has become a focal point in discussions about space sustainability and the need for international regulations to prevent the creation of new debris.

Loading next visibility...
Identifier
32230, 1999-025CWC
Orbit
SSO
Country
Flag of CNCN / PRC
Related business
Manufacturer
Unknown
Mission
Spacecraft
Bus & Motor
Unknown
Mass
Unknown
Launch date (UTC)
1999-05-10 (27 years ago)
Launch vehicle
Unknown
Launch site
Taiyaun Space Center, China (TSC)
Object type
Payload
Rocket body
Debris
Shape & HBR
Unknown shape, 0.1 m
Radar Cross Section
Medium (>0.1 m² and <1 m²)

Expand to show TLE details & history
Last TLE update: 2 days ago

TLE from 2 days ago
0 FENGYUN 1C DEB
1 32230U 99025CWC 26206.96112069  .00010004  00000-0  19838-2 0  9991
2 32230  98.8847  17.0570 0048597 118.9814  32.9384 14.61693930639549
Epoch: 2026-07-25T23:04Z
TLE epoch observation values (Epoch: 2026-07-25T23:04:00.827Z)
Latitude
27.45653°
Longitude
-87.97858°
Altitude
662.331 km
Speed
7.544 km/s
True Right ascension
13h 26m 45s
True Declination
27° 18' 51"
Sunlit
Object was in daylight at epoch
Visualization orbit readout
Latitude
Unknown
Longitude
Unknown
Altitude
Unknown
Speed
Unknown
Apparent Right ascension
Unknown
Apparent Declination
Unknown
Sunlit
N/A
Visualization observer readout
Local Sidereal Time
00:26:58
Azimuth
Unknown
Elevation
Unknown
Doppler factor
Unknown
Orbital elements
Apogee altitude
719.145 km
Perigee altitude
650.497 km
Semi-major axis
7,062.958 km
Eccentricity
0.00486
Inclination
98.8847°
RAAN
17.057°
Arg. of periapsis
118.9814°
True anomaly
33.24275°
Mean anomaly
32.9384°
Eccentric anomaly
33.09042°
Mean motion
3.65648 °/min
Orbital period
98.46 mins
BSTAR
0.0019838
Loading maneuver chart data...
Computing Atmospheric mass density...

Documentation

Showing up to 5 results
|